• Em Portugal
  • Lista de países
  • Para 7 dias
  • Temperatura da água
  • Mapas de satélite
  • Mapa do tempo
  • Widgets de tempo
  • user-avatar
    Iniciar Sessão

    Previsão horária em Ongandyera

    Hoje, 18 Junho, Segunda-feira

    Tempo Temperatura Precipitação Vento Pressão Humidade
    00:00 +16°C° 0 mm 2 m/s 670 mmHg 22%
    01:00 +15°C° 0 mm 2 m/s 670 mmHg 22%
    02:00 +15°C° 0 mm 2 m/s 670 mmHg 23%
    03:00 +14°C° 0 mm 2 m/s 670 mmHg 24%
    04:00 +14°C° 0 mm 2 m/s 670 mmHg 25%
    05:00 +14°C° 0 mm 2 m/s 670 mmHg 26%
    06:00 +13°C° 0 mm 2 m/s 670 mmHg 27%
    07:00 +13°C° 0 mm 2 m/s 670 mmHg 28%
    08:00 +16°C° 0 mm 2 m/s 671 mmHg 24%
    09:00 +20°C° 0 mm 2 m/s 672 mmHg 20%
    10:00 +24°C° 0 mm 3 m/s 673 mmHg 17%
    11:00 +26°C° 0 mm 3 m/s 673 mmHg 15%
    12:00 +27°C° 0 mm 3 m/s 672 mmHg 13%
    13:00 +29°C° 0 mm 4 m/s 672 mmHg 11%
    14:00 +29°C° 0 mm 3 m/s 672 mmHg 11%
    15:00 +29°C° 0 mm 2 m/s 671 mmHg 10%
    16:00 +29°C° 0 mm 2 m/s 671 mmHg 10%
    17:00 +26°C° 0 mm 2 m/s 670 mmHg 12%
    18:00 +24°C° 0 mm 2 m/s 670 mmHg 14%
    19:00 +20°C° 0 mm 2 m/s 669 mmHg 17%
    20:00 +19°C° 0 mm 2 m/s 670 mmHg 17%
    21:00 +19°C° 0 mm 2 m/s 670 mmHg 18%
    22:00 +18°C° 0 mm 2 m/s 670 mmHg 19%
    23:00 +18°C° 0 mm 2 m/s 670 mmHg 19%

    Amanhã, 19 Junho, Terça-feira

    Tempo Temperatura Precipitação Vento Pressão Humidade
    00:00 +17°C° 0 mm 2 m/s 670 mmHg 20%
    01:00 +16°C° 0 mm 2 m/s 670 mmHg 21%
    02:00 +16°C° 0 mm 2 m/s 669 mmHg 22%
    03:00 +15°C° 0 mm 2 m/s 669 mmHg 23%
    04:00 +15°C° 0 mm 2 m/s 669 mmHg 23%
    05:00 +15°C° 0 mm 2 m/s 669 mmHg 24%
    06:00 +14°C° 0 mm 2 m/s 669 mmHg 25%
    07:00 +14°C° 0 mm 2 m/s 669 mmHg 26%
    08:00 +17°C° 0 mm 2 m/s 670 mmHg 23%
    09:00 +20°C° 0 mm 2 m/s 671 mmHg 20%
    10:00 +24°C° 0 mm 3 m/s 672 mmHg 16%
    11:00 +25°C° 0 mm 3 m/s 672 mmHg 15%
    12:00 +27°C° 0 mm 3 m/s 671 mmHg 14%
    13:00 +29°C° 0 mm 3 m/s 671 mmHg 13%
    14:00 +29°C° 0 mm 2 m/s 671 mmHg 13%
    15:00 +29°C° 0 mm 2 m/s 670 mmHg 12%
    16:00 +29°C° 0 mm 2 m/s 670 mmHg 12%
    17:00 +26°C° 0 mm 2 m/s 670 mmHg 14%
    18:00 +24°C° 0 mm 2 m/s 669 mmHg 16%
    19:00 +21°C° 0 mm 2 m/s 669 mmHg 19%
    20:00 +20°C° 0 mm 2 m/s 669 mmHg 19%
    21:00 +19°C° 0 mm 2 m/s 670 mmHg 20%
    22:00 +19°C° 0 mm 2 m/s 670 mmHg 21%
    23:00 +18°C° 0 mm 2 m/s 670 mmHg 21%

    Depois de amanhã, 20 Junho, Quarta-feira

    Tempo Temperatura Precipitação Vento Pressão Humidade
    00:00 +18°C° 0 mm 2 m/s 669 mmHg 21%
    01:00 +18°C° 0 mm 2 m/s 669 mmHg 21%
    02:00 +17°C° 0 mm 2 m/s 669 mmHg 21%
    03:00 +17°C° 0 mm 3 m/s 669 mmHg 21%
    04:00 +17°C° 0 mm 3 m/s 669 mmHg 21%
    05:00 +16°C° 0 mm 3 m/s 669 mmHg 23%
    06:00 +14°C° 0 mm 3 m/s 670 mmHg 24%
    07:00 +15°C° 0 mm 2 m/s 670 mmHg 25%
    08:00 +17°C° 0 mm 3 m/s 671 mmHg 23%
    09:00 +20°C° 0 mm 3 m/s 672 mmHg 20%
    10:00 +24°C° 0 mm 3 m/s 673 mmHg 18%
    11:00 +26°C° 0 mm 3 m/s 672 mmHg 17%
    12:00 +27°C° 0 mm 3 m/s 672 mmHg 15%
    13:00 +29°C° 0 mm 3 m/s 672 mmHg 14%
    14:00 +29°C° 0 mm 3 m/s 671 mmHg 13%
    15:00 +29°C° 0 mm 2 m/s 671 mmHg 13%
    16:00 +30°C° 0 mm 2 m/s 671 mmHg 12%
    17:00 +27°C° 0 mm 2 m/s 670 mmHg 14%
    18:00 +24°C° 0 mm 2 m/s 670 mmHg 17%
    19:00 +21°C° 0 mm 2 m/s 670 mmHg 19%
    20:00 +20°C° 0 mm 2 m/s 670 mmHg 19%
    21:00 +20°C° 0 mm 2 m/s 671 mmHg 19%
    22:00 +19°C° 0 mm 2 m/s 671 mmHg 20%
    23:00 +19°C° 0 mm 2 m/s 671 mmHg 20%

    21 Junho, Quinta-feira

    Tempo Temperatura Precipitação Vento Pressão Humidade
    00:00 +18°C° 0 mm 2 m/s 671 mmHg 20%
    01:00 +18°C° 0 mm 2 m/s 670 mmHg 21%
    02:00 +17°C° 0 mm 3 m/s 670 mmHg 22%
    03:00 +17°C° 0 mm 3 m/s 670 mmHg 23%
    04:00 +17°C° 0 mm 3 m/s 670 mmHg 23%
    05:00 +16°C° 0 mm 3 m/s 671 mmHg 26%
    06:00 +16°C° 0 mm 2 m/s 671 mmHg 28%
    07:00 +15°C° 0 mm 2 m/s 671 mmHg 30%
    08:00 +18°C° 0 mm 2 m/s 672 mmHg 27%
    09:00 +20°C° 0 mm 3 m/s 673 mmHg 24%
    10:00 +24°C° 0 mm 3 m/s 674 mmHg 21%
    11:00 +26°C° 0 mm 3 m/s 673 mmHg 19%
    12:00 +28°C° 0 mm 3 m/s 673 mmHg 17%
    13:00 +29°C° 0 mm 3 m/s 673 mmHg 15%
    14:00 +29°C° 0 mm 3 m/s 672 mmHg 14%
    15:00 +30°C° 0 mm 3 m/s 672 mmHg 14%
    16:00 +30°C° 0 mm 3 m/s 671 mmHg 13%
    17:00 +27°C° 0 mm 2 m/s 671 mmHg 16%
    18:00 +25°C° 0 mm 2 m/s 671 mmHg 18%
    19:00 +21°C° 0 mm 2 m/s 671 mmHg 21%
    20:00 +21°C° 0 mm 2 m/s 671 mmHg 21%
    21:00 +20°C° 0 mm 3 m/s 671 mmHg 22%
    22:00 +20°C° 0 mm 3 m/s 672 mmHg 22%
    23:00 +19°C° 0 mm 3 m/s 671 mmHg 23%

    22 Junho, Sexta-feira

    Tempo Temperatura Precipitação Vento Pressão Humidade
    00:00 +18°C° 0 mm 3 m/s 671 mmHg 24%
    01:00 +18°C° 0 mm 2 m/s 671 mmHg 25%
    02:00 +17°C° 0 mm 2 m/s 671 mmHg 27%
    03:00 +17°C° 0 mm 2 m/s 671 mmHg 28%
    04:00 +16°C° 0 mm 2 m/s 670 mmHg 30%
    05:00 +16°C° 0 mm 2 m/s 671 mmHg 31%
    06:00 +16°C° 0 mm 2 m/s 671 mmHg 33%
    07:00 +16°C° 0 mm 3 m/s 672 mmHg 35%
    08:00 +19°C° 0 mm 3 m/s 672 mmHg 31%
    09:00 +22°C° 0 mm 4 m/s 673 mmHg 27%
    10:00 +26°C° 0 mm 4 m/s 674 mmHg 23%
    11:00 +27°C° 0 mm 4 m/s 673 mmHg 21%
    12:00 +29°C° 0 mm 4 m/s 673 mmHg 19%
    13:00 +30°C° 0 mm 5 m/s 672 mmHg 17%
    14:00 +30°C° 0 mm 4 m/s 672 mmHg 17%
    15:00 +30°C° 0 mm 3 m/s 671 mmHg 17%
    16:00 +30°C° 0 mm 3 m/s 671 mmHg 17%
    17:00 +28°C° 0 mm 2 m/s 671 mmHg 20%
    18:00 +26°C° 0 mm 2 m/s 671 mmHg 23%
    19:00 +24°C° 0 mm 2 m/s 671 mmHg 27%
    20:00 +23°C° 0 mm 2 m/s 671 mmHg 28%
    21:00 +21°C° 0 mm 2 m/s 671 mmHg 30%
    22:00 +21°C° 0 mm 3 m/s 671 mmHg 31%
    23:00 +20°C° 0 mm 2 m/s 671 mmHg 32%

    23 Junho, Sábado

    Tempo Temperatura Precipitação Vento Pressão Humidade
    00:00 +20°C° 0 mm 2 m/s 671 mmHg 33%
    01:00 +20°C° 0 mm 2 m/s 671 mmHg 35%
    02:00 +19°C° 0 mm 2 m/s 671 mmHg 37%
    03:00 +18°C° 0 mm 2 m/s 670 mmHg 40%
    04:00 +17°C° 0 mm 2 m/s 670 mmHg 43%
    05:00 +17°C° 0 mm 2 m/s 670 mmHg 45%
    06:00 +17°C° 0 mm 2 m/s 671 mmHg 47%
    07:00 +16°C° 0 mm 1 m/s 671 mmHg 48%
    08:00 +19°C° 0 mm 2 m/s 672 mmHg 43%
    09:00 +23°C° 0 mm 2 m/s 672 mmHg 37%
    10:00 +26°C° 0 mm 3 m/s 673 mmHg 32%
    11:00 +27°C° 0 mm 3 m/s 673 mmHg 29%
    12:00 +28°C° 0 mm 3 m/s 672 mmHg 25%
    13:00 +30°C° 0 mm 3 m/s 672 mmHg 22%
    14:00 +30°C° 0 mm 3 m/s 671 mmHg 21%
    15:00 +30°C° 0 mm 3 m/s 671 mmHg 21%
    16:00 +30°C° 0 mm 3 m/s 671 mmHg 20%
    17:00 +28°C° 0 mm 3 m/s 671 mmHg 23%
    18:00 +26°C° 0 mm 3 m/s 671 mmHg 26%
    19:00 +24°C° 0 mm 3 m/s 670 mmHg 29%
    20:00 +24°C° 0 mm 3 m/s 671 mmHg 29%
    21:00 +22°C° 0 mm 3 m/s 671 mmHg 29%
    22:00 +22°C° 0 mm 3 m/s 671 mmHg 30%
    23:00 +21°C° 0 mm 3 m/s 671 mmHg 32%
    Mostrar mais